owner,sensor,date,latitude,longitude,vertical_datum,wind_speed,wind_to_direction,wind_speed_of_gust,qcFlag 
TCOON,ioos:station:TCOON:003:1,2008-05-01T00:00:00Z,26.8015,-97.4706,0.0,12.4,159.0,14.9,'11111222,11111222,11111222' 
TCOON,ioos:station:TCOON:003:1,2008-05-01T01:00:00Z,26.8015,-97.4706,0.0,10.3,160.0,12.4,'11111222,11111222,11111222' 
TCOON,ioos:station:TCOON:003:1,2008-05-01T04:00:00Z,26.8015,-97.4706,0.0,13.3,165.0,15.1,'11111222,11111222,11111222' 
TCOON,ioos:station:TCOON:003:1,2008-05-01T05:00:00Z,26.8015,-97.4706,0.0,12.6,168.0,15.3,'11111222,11111222,11111222' 
TCOON,ioos:station:TCOON:003:1,2008-05-01T06:00:00Z,26.8015,-97.4706,0.0,11.9,170.0,13.5,'11111222,11111222,11111222' 
TCOON,ioos:station:TCOON:003:1,2008-05-01T07:00:00Z,26.8015,-97.4706,0.0,13.7,176.0,15.9,'11111222,11111222,11111222' 
TCOON,ioos:station:TCOON:003:1,2008-05-01T08:00:00Z,26.8015,-97.4706,0.0,8.7,176.0,10.3,'11111222,11111222,11111222' 
TCOON,ioos:station:TCOON:003:1,2008-05-01T09:00:00Z,26.8015,-97.4706,0.0,8.3,182.0,9.5,'11111222,11111222,11111222' 
TCOON,ioos:station:TCOON:003:1,2008-05-01T10:00:00Z,26.8015,-97.4706,0.0,9.1,176.0,10.8,'11111222,11111222,11111222' 
TCOON,ioos:station:TCOON:003:1,2008-05-01T11:00:00Z,26.8015,-97.4706,0.0,8.0,175.0,9.8,'11111222,11111222,11111222' 
TCOON,ioos:station:TCOON:003:1,2008-05-01T12:00:00Z,26.8015,-97.4706,0.0,8.6,176.0,10.4,'11111222,11111222,11111222' 
TCOON,ioos:station:TCOON:003:1,2008-05-01T13:00:00Z,26.8015,-97.4706,0.0,7.9,171.0,9.4,'11111222,11111222,11111222' 
TCOON,ioos:station:TCOON:003:1,2008-05-01T14:00:00Z,26.8015,-97.4706,0.0,8.6,166.0,9.7,'11111222,11111222,11111222' 
TCOON,ioos:station:TCOON:003:1,2008-05-01T15:00:00Z,26.8015,-97.4706,0.0,10.3,163.0,12.2,'11111222,11111222,11111222' 
TCOON,ioos:station:TCOON:003:1,2008-05-01T16:00:00Z,26.8015,-97.4706,0.0,8.9,165.0,11.0,'11111222,11111222,11111222' 
TCOON,ioos:station:TCOON:003:1,2008-05-01T17:00:00Z,26.8015,-97.4706,0.0,10.5,163.0,12.7,'11111222,11111222,11111222' 
TCOON,ioos:station:TCOON:003:1,2008-05-01T18:00:00Z,26.8015,-97.4706,0.0,9.9,166.0,11.6,'11111222,11111222,11111222' 
TCOON,ioos:station:TCOON:003:1,2008-05-01T19:00:00Z,26.8015,-97.4706,0.0,10.7,171.0,13.4,'11111222,11111222,11111222' 
TCOON,ioos:station:TCOON:003:1,2008-05-01T20:00:00Z,26.8015,-97.4706,0.0,11.5,161.0,13.9,'11111222,11111222,11111222' 
TCOON,ioos:station:TCOON:003:1,2008-05-01T21:00:00Z,26.8015,-97.4706,0.0,12.2,164.0,15.3,'11111222,11111222,11111222' 
TCOON,ioos:station:TCOON:003:1,2008-05-01T22:00:00Z,26.8015,-97.4706,0.0,11.4,163.0,13.1,'11111222,11111222,11111222' 
TCOON,ioos:station:TCOON:003:1,2008-05-01T23:00:00Z,26.8015,-97.4706,0.0,11.4,164.0,13.5,'11111222,11111222,11111222' 
TCOON,ioos:station:TCOON:003:1,2008-05-02T00:00:00Z,26.8015,-97.4706,0.0,11.7,171.0,13.7,'11111222,11111222,11111222' 
TCOON,ioos:station:TCOON:003:1,2008-05-02T01:00:00Z,26.8015,-97.4706,0.0,10.9,174.0,13.1,'11111222,11111222,11111222' 
TCOON,ioos:station:TCOON:003:1,2008-05-02T02:00:00Z,26.8015,-97.4706,0.0,12.6,175.0,14.6,'11111222,11111222,11111222' 
TCOON,ioos:station:TCOON:003:1,2008-05-02T03:00:00Z,26.8015,-97.4706,0.0,11.1,175.0,13.5,'11111222,11111222,11111222' 
TCOON,ioos:station:TCOON:003:1,2008-05-02T04:00:00Z,26.8015,-97.4706,0.0,12.0,179.0,13.6,'11111222,11111222,11111222' 
TCOON,ioos:station:TCOON:003:1,2008-05-02T05:00:00Z,26.8015,-97.4706,0.0,11.8,181.0,13.6,'11111222,11111222,11111222' 
TCOON,ioos:station:TCOON:003:1,2008-05-02T06:00:00Z,26.8015,-97.4706,0.0,10.0,172.0,11.5,'11111222,11111222,11111222' 
TCOON,ioos:station:TCOON:003:1,2008-05-02T07:00:00Z,26.8015,-97.4706,0.0,9.9,176.0,12.2,'11111222,11111222,11111222' 
TCOON,ioos:station:TCOON:003:1,2008-05-02T08:00:00Z,26.8015,-97.4706,0.0,9.7,173.0,11.1,'11111222,11111222,11111222' 
TCOON,ioos:station:TCOON:003:1,2008-05-02T09:00:00Z,26.8015,-97.4706,0.0,7.4,170.0,8.6,'11111222,11111222,11111222' 
TCOON,ioos:station:TCOON:003:1,2008-05-02T10:00:00Z,26.8015,-97.4706,0.0,7.6,159.0,8.9,'11111222,11111222,11111222' 
TCOON,ioos:station:TCOON:003:1,2008-05-02T11:00:00Z,26.8015,-97.4706,0.0,8.8,165.0,10.4,'11111222,11111222,11111222' 
TCOON,ioos:station:TCOON:003:1,2008-05-02T12:00:00Z,26.8015,-97.4706,0.0,8.4,169.0,9.5,'11111222,11111222,11111222' 
TCOON,ioos:station:TCOON:003:1,2008-05-02T13:00:00Z,26.8015,-97.4706,0.0,9.3,170.0,10.5,'11111222,11111222,11111222' 
TCOON,ioos:station:TCOON:003:1,2008-05-02T14:00:00Z,26.8015,-97.4706,0.0,9.6,176.0,11.4,'11111222,11111222,11111222' 
TCOON,ioos:station:TCOON:003:1,2008-05-02T15:00:00Z,26.8015,-97.4706,0.0,8.7,175.0,10.5,'11111222,11111222,11111222' 
TCOON,ioos:station:TCOON:003:1,2008-05-02T16:00:00Z,26.8015,-97.4706,0.0,9.8,174.0,11.1,'11111222,11111222,11111222' 
TCOON,ioos:station:TCOON:003:1,2008-05-02T17:00:00Z,26.8015,-97.4706,0.0,8.6,168.0,10.2,'11111222,11111222,11111222' 
TCOON,ioos:station:TCOON:003:1,2008-05-02T18:00:00Z,26.8015,-97.4706,0.0,8.6,165.0,9.7,'11111222,11111222,11111222' 
TCOON,ioos:station:TCOON:003:1,2008-05-02T19:00:00Z,26.8015,-97.4706,0.0,6.6,163.0,7.7,'11111222,11111222,11111222' 
TCOON,ioos:station:TCOON:003:1,2008-05-02T20:00:00Z,26.8015,-97.4706,0.0,6.2,160.0,7.2,'11111222,11111222,11111222' 
TCOON,ioos:station:TCOON:003:1,2008-05-02T21:00:00Z,26.8015,-97.4706,0.0,9.3,140.0,10.8,'11111222,11111222,11111222' 
TCOON,ioos:station:TCOON:003:1,2008-05-02T22:00:00Z,26.8015,-97.4706,0.0,9.3,144.0,10.0,'11111222,11111222,11111222' 
TCOON,ioos:station:TCOON:003:1,2008-05-02T23:00:00Z,26.8015,-97.4706,0.0,8.1,137.0,9.4,'11111222,11111222,11111222' 
TCOON,ioos:station:TCOON:003:1,2008-05-03T00:00:00Z,26.8015,-97.4706,0.0,7.6,135.0,8.6,'11111222,11111222,11111222' 
TCOON,ioos:station:TCOON:003:1,2008-05-03T01:00:00Z,26.8015,-97.4706,0.0,7.6,141.0,8.8,'11111222,11111222,11111222' 
TCOON,ioos:station:TCOON:003:1,2008-05-03T02:00:00Z,26.8015,-97.4706,0.0,7.5,138.0,8.6,'11111222,11111222,11111222' 
TCOON,ioos:station:TCOON:003:1,2008-05-03T03:00:00Z,26.8015,-97.4706,0.0,6.9,147.0,8.6,'11111222,11111222,11111222' 
TCOON,ioos:station:TCOON:003:1,2008-05-03T04:00:00Z,26.8015,-97.4706,0.0,7.9,153.0,9.4,'11111222,11111222,11111222' 
TCOON,ioos:station:TCOON:003:1,2008-05-03T05:00:00Z,26.8015,-97.4706,0.0,8.1,157.0,9.2,'11111222,11111222,11111222' 
TCOON,ioos:station:TCOON:003:1,2008-05-03T06:00:00Z,26.8015,-97.4706,0.0,7.5,176.0,8.7,'11111222,11111222,11111222' 
TCOON,ioos:station:TCOON:003:1,2008-05-03T07:00:00Z,26.8015,-97.4706,0.0,6.9,183.0,7.6,'11111222,11111222,11111222' 
TCOON,ioos:station:TCOON:003:1,2008-05-03T08:00:00Z,26.8015,-97.4706,0.0,4.8,203.0,5.4,'11111222,11111222,11111222' 
TCOON,ioos:station:TCOON:003:1,2008-05-03T09:00:00Z,26.8015,-97.4706,0.0,4.0,177.0,4.3,'11111222,11111222,11111222' 
TCOON,ioos:station:TCOON:003:1,2008-05-03T10:00:00Z,26.8015,-97.4706,0.0,3.7,144.0,4.2,'11111222,11111222,11111222' 
TCOON,ioos:station:TCOON:003:1,2008-05-03T11:00:00Z,26.8015,-97.4706,0.0,2.8,106.0,3.1,'11111222,11111222,11111222' 
TCOON,ioos:station:TCOON:003:1,2008-05-03T12:00:00Z,26.8015,-97.4706,0.0,2.8,98.0,3.2,'11111222,11111222,11111222' 
TCOON,ioos:station:TCOON:003:1,2008-05-03T13:00:00Z,26.8015,-97.4706,0.0,4.0,73.0,4.7,'11111222,11111222,11111222' 
TCOON,ioos:station:TCOON:003:1,2008-05-03T14:00:00Z,26.8015,-97.4706,0.0,4.1,75.0,4.5,'11111222,11111222,11111222' 
TCOON,ioos:station:TCOON:003:1,2008-05-03T15:00:00Z,26.8015,-97.4706,0.0,4.5,79.0,5.9,'11111222,11111222,11111222' 
TCOON,ioos:station:TCOON:003:1,2008-05-03T16:00:00Z,26.8015,-97.4706,0.0,5.9,71.0,7.3,'11111222,11111222,11111222' 
TCOON,ioos:station:TCOON:003:1,2008-05-03T17:00:00Z,26.8015,-97.4706,0.0,6.2,84.0,7.4,'11111222,11111222,11111222' 
TCOON,ioos:station:TCOON:003:1,2008-05-03T18:00:00Z,26.8015,-97.4706,0.0,6.9,87.0,8.0,'11111222,11111222,11111222' 
TCOON,ioos:station:TCOON:003:1,2008-05-03T19:00:00Z,26.8015,-97.4706,0.0,6.5,100.0,8.2,'11111222,11111222,11111222' 
TCOON,ioos:station:TCOON:003:1,2008-05-03T20:00:00Z,26.8015,-97.4706,0.0,10.4,63.0,12.7,'11111222,11111222,11111222' 
TCOON,ioos:station:TCOON:003:1,2008-05-03T21:00:00Z,26.8015,-97.4706,0.0,10.5,73.0,12.5,'11111222,11111222,11111222' 
TCOON,ioos:station:TCOON:003:1,2008-05-03T22:00:00Z,26.8015,-97.4706,0.0,9.9,64.0,12.0,'11111222,11111222,11111222' 
TCOON,ioos:station:TCOON:003:1,2008-05-03T23:00:00Z,26.8015,-97.4706,0.0,11.3,55.0,13.2,'11111222,11111222,11111222' 
TCOON,ioos:station:TCOON:003:1,2008-05-04T00:00:00Z,26.8015,-97.4706,0.0,9.9,56.0,11.7,'11111222,11111222,11111222' 
TCOON,ioos:station:TCOON:003:1,2008-05-04T01:00:00Z,26.8015,-97.4706,0.0,7.4,63.0,9.0,'11111222,11111222,11111222' 
TCOON,ioos:station:TCOON:003:1,2008-05-04T02:00:00Z,26.8015,-97.4706,0.0,6.9,67.0,8.8,'11111222,11111222,11111222' 
TCOON,ioos:station:TCOON:003:1,2008-05-04T03:00:00Z,26.8015,-97.4706,0.0,6.5,72.0,7.9,'11111222,11111222,11111222' 
TCOON,ioos:station:TCOON:003:1,2008-05-04T04:00:00Z,26.8015,-97.4706,0.0,5.9,73.0,7.4,'11111222,11111222,11111222' 
TCOON,ioos:station:TCOON:003:1,2008-05-04T05:00:00Z,26.8015,-97.4706,0.0,5.8,71.0,7.3,'11111222,11111222,11111222' 
TCOON,ioos:station:TCOON:003:1,2008-05-04T06:00:00Z,26.8015,-97.4706,0.0,4.7,75.0,5.8,'11111222,11111222,11111222' 
TCOON,ioos:station:TCOON:003:1,2008-05-04T07:00:00Z,26.8015,-97.4706,0.0,4.6,76.0,5.6,'11111222,11111222,11111222' 
TCOON,ioos:station:TCOON:003:1,2008-05-04T08:00:00Z,26.8015,-97.4706,0.0,4.1,76.0,5.3,'11111222,11111222,11111222' 
TCOON,ioos:station:TCOON:003:1,2008-05-04T09:00:00Z,26.8015,-97.4706,0.0,5.2,67.0,6.5,'11111222,11111222,11111222' 
TCOON,ioos:station:TCOON:003:1,2008-05-04T10:00:00Z,26.8015,-97.4706,0.0,5.0,70.0,5.8,'11111222,11111222,11111222' 
TCOON,ioos:station:TCOON:003:1,2008-05-04T11:00:00Z,26.8015,-97.4706,0.0,5.2,70.0,6.3,'11111222,11111222,11111222' 
TCOON,ioos:station:TCOON:003:1,2008-05-04T12:00:00Z,26.8015,-97.4706,0.0,4.9,61.0,6.0,'11111222,11111222,11111222' 
TCOON,ioos:station:TCOON:003:1,2008-05-04T13:00:00Z,26.8015,-97.4706,0.0,4.4,73.0,5.6,'11111222,11111222,11111222' 
TCOON,ioos:station:TCOON:003:1,2008-05-04T14:00:00Z,26.8015,-97.4706,0.0,6.6,83.0,8.2,'11111222,11111222,11111222' 
TCOON,ioos:station:TCOON:003:1,2008-05-04T15:00:00Z,26.8015,-97.4706,0.0,7.8,105.0,9.8,'11111222,11111222,11111222' 
TCOON,ioos:station:TCOON:003:1,2008-05-04T16:00:00Z,26.8015,-97.4706,0.0,7.5,122.0,8.6,'11111222,11111222,11111222' 
TCOON,ioos:station:TCOON:003:1,2008-05-04T17:00:00Z,26.8015,-97.4706,0.0,8.5,129.0,10.9,'11111222,11111222,11111222' 
TCOON,ioos:station:TCOON:003:1,2008-05-04T18:00:00Z,26.8015,-97.4706,0.0,7.7,137.0,9.1,'11111222,11111222,11111222' 
TCOON,ioos:station:TCOON:003:1,2008-05-04T19:00:00Z,26.8015,-97.4706,0.0,8.5,143.0,9.8,'11111222,11111222,11111222' 
TCOON,ioos:station:TCOON:003:1,2008-05-04T20:00:00Z,26.8015,-97.4706,0.0,8.1,135.0,9.5,'11111222,11111222,11111222' 
TCOON,ioos:station:TCOON:003:1,2008-05-04T21:00:00Z,26.8015,-97.4706,0.0,8.6,131.0,10.4,'11111222,11111222,11111222' 
TCOON,ioos:station:TCOON:003:1,2008-05-04T22:00:00Z,26.8015,-97.4706,0.0,8.6,130.0,10.3,'11111222,11111222,11111222' 
TCOON,ioos:station:TCOON:003:1,2008-05-04T23:00:00Z,26.8015,-97.4706,0.0,8.1,118.0,10.1,'11111222,11111222,11111222' 
TCOON,ioos:station:TCOON:003:1,2008-05-05T00:00:00Z,26.8015,-97.4706,0.0,8.0,118.0,9.6,'11111222,11111222,11111222' 
TCOON,ioos:station:TCOON:003:1,2008-05-05T01:00:00Z,26.8015,-97.4706,0.0,7.1,123.0,8.6,'11111222,11111222,11111222' 
TCOON,ioos:station:TCOON:003:1,2008-05-05T02:00:00Z,26.8015,-97.4706,0.0,8.4,129.0,10.4,'11111222,11111222,11111222' 
TCOON,ioos:station:TCOON:003:1,2008-05-05T03:00:00Z,26.8015,-97.4706,0.0,8.5,133.0,10.0,'11111222,11111222,11111222' 
TCOON,ioos:station:TCOON:003:1,2008-05-05T04:00:00Z,26.8015,-97.4706,0.0,7.8,142.0,9.6,'11111222,11111222,11111222' 
TCOON,ioos:station:TCOON:003:1,2008-05-05T05:00:00Z,26.8015,-97.4706,0.0,8.2,138.0,9.5,'11111222,11111222,11111222' 
TCOON,ioos:station:TCOON:003:1,2008-05-05T06:00:00Z,26.8015,-97.4706,0.0,8.3,140.0,10.0,'11111222,11111222,11111222' 
TCOON,ioos:station:TCOON:003:1,2008-05-05T07:00:00Z,26.8015,-97.4706,0.0,7.6,141.0,9.1,'11111222,11111222,11111222' 
TCOON,ioos:station:TCOON:003:1,2008-05-05T08:00:00Z,26.8015,-97.4706,0.0,7.7,139.0,8.6,'11111222,11111222,11111222' 
TCOON,ioos:station:TCOON:003:1,2008-05-05T09:00:00Z,26.8015,-97.4706,0.0,6.0,132.0,7.3,'11111222,11111222,11111222' 
TCOON,ioos:station:TCOON:003:1,2008-05-05T10:00:00Z,26.8015,-97.4706,0.0,5.5,125.0,6.5,'11111222,11111222,11111222' 
TCOON,ioos:station:TCOON:003:1,2008-05-05T11:00:00Z,26.8015,-97.4706,0.0,5.0,105.0,5.9,'11111222,11111222,11111222' 
TCOON,ioos:station:TCOON:003:1,2008-05-05T12:00:00Z,26.8015,-97.4706,0.0,6.3,129.0,7.6,'11111222,11111222,11111222' 
TCOON,ioos:station:TCOON:003:1,2008-05-05T13:00:00Z,26.8015,-97.4706,0.0,8.8,143.0,10.2,'11111222,11111222,11111222' 
TCOON,ioos:station:TCOON:003:1,2008-05-05T14:00:00Z,26.8015,-97.4706,0.0,8.2,148.0,10.0,'11111222,11111222,11111222' 
TCOON,ioos:station:TCOON:003:1,2008-05-05T15:00:00Z,26.8015,-97.4706,0.0,8.5,151.0,10.1,'11111222,11111222,11111222' 
TCOON,ioos:station:TCOON:003:1,2008-05-05T16:00:00Z,26.8015,-97.4706,0.0,11.4,165.0,13.4,'11111222,11111222,11111222' 
TCOON,ioos:station:TCOON:003:1,2008-05-05T17:00:00Z,26.8015,-97.4706,0.0,13.6,173.0,16.6,'11111222,11111222,11111222' 
TCOON,ioos:station:TCOON:003:1,2008-05-05T18:00:00Z,26.8015,-97.4706,0.0,13.1,179.0,15.6,'11111222,11111222,11111222' 
TCOON,ioos:station:TCOON:003:1,2008-05-05T19:00:00Z,26.8015,-97.4706,0.0,11.7,175.0,13.2,'11111222,11111222,11111222' 
TCOON,ioos:station:TCOON:003:1,2008-05-05T20:00:00Z,26.8015,-97.4706,0.0,10.5,164.0,12.5,'11111222,11111222,11111222' 
TCOON,ioos:station:TCOON:003:1,2008-05-05T21:00:00Z,26.8015,-97.4706,0.0,9.7,163.0,10.9,'11111222,11111222,11111222' 
TCOON,ioos:station:TCOON:003:1,2008-05-05T22:00:00Z,26.8015,-97.4706,0.0,9.8,152.0,11.3,'11111222,11111222,11111222' 
TCOON,ioos:station:TCOON:003:1,2008-05-05T23:00:00Z,26.8015,-97.4706,0.0,10.1,155.0,11.5,'11111222,11111222,11111222' 
TCOON,ioos:station:TCOON:003:1,2008-05-06T00:00:00Z,26.8015,-97.4706,0.0,8.6,132.0,10.7,'11111222,11111222,11111222' 
TCOON,ioos:station:TCOON:003:1,2008-05-06T01:00:00Z,26.8015,-97.4706,0.0,8.8,117.0,11.5,'11111222,11111222,11111222' 
TCOON,ioos:station:TCOON:003:1,2008-05-06T02:00:00Z,26.8015,-97.4706,0.0,9.4,115.0,11.3,'11111222,11111222,11111222' 
TCOON,ioos:station:TCOON:003:1,2008-05-06T03:00:00Z,26.8015,-97.4706,0.0,9.2,130.0,11.3,'11111222,11111222,11111222' 
TCOON,ioos:station:TCOON:003:1,2008-05-06T04:00:00Z,26.8015,-97.4706,0.0,10.4,136.0,11.9,'11111222,11111222,11111222' 
TCOON,ioos:station:TCOON:003:1,2008-05-06T05:00:00Z,26.8015,-97.4706,0.0,9.7,141.0,11.1,'11111222,11111222,11111222' 
TCOON,ioos:station:TCOON:003:1,2008-05-06T06:00:00Z,26.8015,-97.4706,0.0,9.0,137.0,10.9,'11111222,11111222,11111222' 
TCOON,ioos:station:TCOON:003:1,2008-05-06T07:00:00Z,26.8015,-97.4706,0.0,7.9,138.0,9.5,'11111222,11111222,11111222' 
TCOON,ioos:station:TCOON:003:1,2008-05-06T08:00:00Z,26.8015,-97.4706,0.0,7.3,138.0,8.1,'11111222,11111222,11111222' 
TCOON,ioos:station:TCOON:003:1,2008-05-06T09:00:00Z,26.8015,-97.4706,0.0,8.5,157.0,10.0,'11111222,11111222,11111222' 
TCOON,ioos:station:TCOON:003:1,2008-05-06T10:00:00Z,26.8015,-97.4706,0.0,7.1,154.0,8.5,'11111222,11111222,11111222' 
TCOON,ioos:station:TCOON:003:1,2008-05-06T11:00:00Z,26.8015,-97.4706,0.0,8.1,157.0,9.1,'11111222,11111222,11111222' 
TCOON,ioos:station:TCOON:003:1,2008-05-06T12:00:00Z,26.8015,-97.4706,0.0,7.0,157.0,8.7,'11111222,11111222,11111222' 
TCOON,ioos:station:TCOON:003:1,2008-05-06T13:00:00Z,26.8015,-97.4706,0.0,7.5,169.0,8.7,'11111222,11111222,11111222' 
TCOON,ioos:station:TCOON:003:1,2008-05-06T14:00:00Z,26.8015,-97.4706,0.0,8.9,165.0,9.9,'11111222,11111222,11111222' 
TCOON,ioos:station:TCOON:003:1,2008-05-06T15:00:00Z,26.8015,-97.4706,0.0,8.3,166.0,9.3,'11111222,11111222,11111222' 
TCOON,ioos:station:TCOON:003:1,2008-05-06T16:00:00Z,26.8015,-97.4706,0.0,5.6,155.0,6.7,'11111222,11111222,11111222' 
TCOON,ioos:station:TCOON:003:1,2008-05-06T17:00:00Z,26.8015,-97.4706,0.0,8.0,159.0,9.1,'11111222,11111222,11111222' 
TCOON,ioos:station:TCOON:003:1,2008-05-06T18:00:00Z,26.8015,-97.4706,0.0,7.3,173.0,8.6,'11111222,11111222,11111222' 
TCOON,ioos:station:TCOON:003:1,2008-05-06T19:00:00Z,26.8015,-97.4706,0.0,10.0,153.0,11.8,'11111222,11111222,11111222' 
TCOON,ioos:station:TCOON:003:1,2008-05-06T20:00:00Z,26.8015,-97.4706,0.0,10.8,159.0,12.4,'11111222,11111222,11111222' 
TCOON,ioos:station:TCOON:003:1,2008-05-06T21:00:00Z,26.8015,-97.4706,0.0,12.8,160.0,16.1,'11111222,11111222,11111222' 
TCOON,ioos:station:TCOON:003:1,2008-05-06T22:00:00Z,26.8015,-97.4706,0.0,12.3,160.0,15.4,'11111222,11111222,11111222' 
TCOON,ioos:station:TCOON:003:1,2008-05-06T23:00:00Z,26.8015,-97.4706,0.0,12.3,161.0,14.9,'11111222,11111222,11111222' 
TCOON,ioos:station:TCOON:003:1,2008-05-07T00:00:00Z,26.8015,-97.4706,0.0,12.8,156.0,15.1,'11111222,11111222,11111222' 
TCOON,ioos:station:TCOON:003:1,2008-05-07T01:00:00Z,26.8015,-97.4706,0.0,11.5,158.0,14.4,'11111222,11111222,11111222' 
TCOON,ioos:station:TCOON:003:1,2008-05-07T02:00:00Z,26.8015,-97.4706,0.0,11.7,166.0,14.1,'11111222,11111222,11111222' 
TCOON,ioos:station:TCOON:003:1,2008-05-07T03:00:00Z,26.8015,-97.4706,0.0,13.0,168.0,14.5,'11111222,11111222,11111222' 
TCOON,ioos:station:TCOON:003:1,2008-05-07T04:00:00Z,26.8015,-97.4706,0.0,13.5,168.0,15.1,'11111222,11111222,11111222' 
TCOON,ioos:station:TCOON:003:1,2008-05-07T05:00:00Z,26.8015,-97.4706,0.0,12.5,180.0,14.7,'11111222,11111222,11111222' 
TCOON,ioos:station:TCOON:003:1,2008-05-07T06:00:00Z,26.8015,-97.4706,0.0,14.4,178.0,16.9,'11111222,11111222,11111222' 
TCOON,ioos:station:TCOON:003:1,2008-05-07T07:00:00Z,26.8015,-97.4706,0.0,13.8,181.0,17.2,'11111222,11111222,11111222' 
TCOON,ioos:station:TCOON:003:1,2008-05-07T08:00:00Z,26.8015,-97.4706,0.0,13.3,184.0,15.8,'11111222,11111222,11111222' 
TCOON,ioos:station:TCOON:003:1,2008-05-07T09:00:00Z,26.8015,-97.4706,0.0,10.1,185.0,11.8,'11111222,11111222,11111222' 
TCOON,ioos:station:TCOON:003:1,2008-05-07T10:00:00Z,26.8015,-97.4706,0.0,10.6,192.0,13.1,'11111222,11111222,11111222' 
TCOON,ioos:station:TCOON:003:1,2008-05-07T11:00:00Z,26.8015,-97.4706,0.0,8.9,191.0,10.8,'11111222,11111222,11111222' 
TCOON,ioos:station:TCOON:003:1,2008-05-07T12:00:00Z,26.8015,-97.4706,0.0,10.9,187.0,12.8,'11111222,11111222,11111222' 
TCOON,ioos:station:TCOON:003:1,2008-05-07T13:00:00Z,26.8015,-97.4706,0.0,8.4,183.0,9.7,'11111222,11111222,11111222' 
TCOON,ioos:station:TCOON:003:1,2008-05-07T14:00:00Z,26.8015,-97.4706,0.0,10.7,186.0,12.6,'11111222,11111222,11111222' 
TCOON,ioos:station:TCOON:003:1,2008-05-07T15:00:00Z,26.8015,-97.4706,0.0,10.7,177.0,13.6,'11111222,11111222,11111222' 
TCOON,ioos:station:TCOON:003:1,2008-05-07T16:00:00Z,26.8015,-97.4706,0.0,11.8,162.0,14.1,'11111222,11111222,11111222' 
TCOON,ioos:station:TCOON:003:1,2008-05-07T17:00:00Z,26.8015,-97.4706,0.0,12.4,167.0,14.7,'11111222,11111222,11111222' 
TCOON,ioos:station:TCOON:003:1,2008-05-07T18:00:00Z,26.8015,-97.4706,0.0,12.5,169.0,15.0,'11111222,11111222,11111222' 
TCOON,ioos:station:TCOON:003:1,2008-05-07T19:00:00Z,26.8015,-97.4706,0.0,10.8,164.0,12.2,'11111222,11111222,11111222' 
TCOON,ioos:station:TCOON:003:1,2008-05-07T20:00:00Z,26.8015,-97.4706,0.0,11.7,165.0,13.4,'11111222,11111222,11111222' 
TCOON,ioos:station:TCOON:003:1,2008-05-07T21:00:00Z,26.8015,-97.4706,0.0,10.5,163.0,12.1,'11111222,11111222,11111222' 
TCOON,ioos:station:TCOON:003:1,2008-05-07T22:00:00Z,26.8015,-97.4706,0.0,10.0,163.0,11.7,'11111222,11111222,11111222' 
TCOON,ioos:station:TCOON:003:1,2008-05-07T23:00:00Z,26.8015,-97.4706,0.0,10.7,165.0,12.2,'11111222,11111222,11111222' 
TCOON,ioos:station:TCOON:003:1,2008-05-08T00:00:00Z,26.8015,-97.4706,0.0,11.3,168.0,13.1,'11111222,11111222,11111222' 
TCOON,ioos:station:TCOON:003:1,2008-05-08T01:00:00Z,26.8015,-97.4706,0.0,10.8,173.0,12.1,'11111222,11111222,11111222' 
TCOON,ioos:station:TCOON:003:1,2008-05-08T02:00:00Z,26.8015,-97.4706,0.0,9.3,183.0,11.7,'11111222,11111222,11111222' 
TCOON,ioos:station:TCOON:003:1,2008-05-08T03:00:00Z,26.8015,-97.4706,0.0,7.2,196.0,8.3,'11111222,11111222,11111222' 
TCOON,ioos:station:TCOON:003:1,2008-05-08T04:00:00Z,26.8015,-97.4706,0.0,2.9,219.0,3.8,'11111222,11111222,11111222' 
TCOON,ioos:station:TCOON:003:1,2008-05-08T05:00:00Z,26.8015,-97.4706,0.0,2.6,200.0,3.2,'11111222,11111222,11111222' 
TCOON,ioos:station:TCOON:003:1,2008-05-08T06:00:00Z,26.8015,-97.4706,0.0,4.0,180.0,4.7,'11111222,11111222,11111222' 
TCOON,ioos:station:TCOON:003:1,2008-05-08T07:00:00Z,26.8015,-97.4706,0.0,6.2,186.0,7.1,'11111222,11111222,11111222' 
TCOON,ioos:station:TCOON:003:1,2008-05-08T08:00:00Z,26.8015,-97.4706,0.0,6.7,184.0,8.1,'11111222,11111222,11111222' 
TCOON,ioos:station:TCOON:003:1,2008-05-08T09:00:00Z,26.8015,-97.4706,0.0,8.3,183.0,9.3,'11111222,11111222,11111222' 
TCOON,ioos:station:TCOON:003:1,2008-05-08T10:00:00Z,26.8015,-97.4706,0.0,5.4,196.0,6.1,'11111222,11111222,11111222' 
TCOON,ioos:station:TCOON:003:1,2008-05-08T11:00:00Z,26.8015,-97.4706,0.0,5.1,206.0,6.0,'11111222,11111222,11111222' 
TCOON,ioos:station:TCOON:003:1,2008-05-08T12:00:00Z,26.8015,-97.4706,0.0,5.0,199.0,5.9,'11111222,11111222,11111222' 
TCOON,ioos:station:TCOON:003:1,2008-05-08T13:00:00Z,26.8015,-97.4706,0.0,6.8,201.0,7.8,'11111222,11111222,11111222' 
TCOON,ioos:station:TCOON:003:1,2008-05-08T14:00:00Z,26.8015,-97.4706,0.0,5.0,204.0,5.6,'11111222,11111222,11111222' 
TCOON,ioos:station:TCOON:003:1,2008-05-08T15:00:00Z,26.8015,-97.4706,0.0,3.7,211.0,4.8,'11111222,11111222,11111222' 
TCOON,ioos:station:TCOON:003:1,2008-05-08T16:00:00Z,26.8015,-97.4706,0.0,4.9,150.0,5.9,'11111222,11111222,11111222' 
TCOON,ioos:station:TCOON:003:1,2008-05-08T17:00:00Z,26.8015,-97.4706,0.0,5.0,154.0,5.8,'11111222,11111222,11111222' 
TCOON,ioos:station:TCOON:003:1,2008-05-08T18:00:00Z,26.8015,-97.4706,0.0,5.6,160.0,6.2,'11111222,11111222,11111222' 
TCOON,ioos:station:TCOON:003:1,2008-05-08T19:00:00Z,26.8015,-97.4706,0.0,8.7,133.0,9.9,'11111222,11111222,11111222' 
TCOON,ioos:station:TCOON:003:1,2008-05-08T20:00:00Z,26.8015,-97.4706,0.0,9.0,141.0,10.5,'11111222,11111222,11111222' 
TCOON,ioos:station:TCOON:003:1,2008-05-08T21:00:00Z,26.8015,-97.4706,0.0,8.3,139.0,9.9,'11111222,11111222,11111222' 
TCOON,ioos:station:TCOON:003:1,2008-05-08T22:00:00Z,26.8015,-97.4706,0.0,8.7,140.0,10.2,'11111222,11111222,11111222' 
TCOON,ioos:station:TCOON:003:1,2008-05-08T23:00:00Z,26.8015,-97.4706,0.0,8.5,149.0,10.0,'11111222,11111222,11111222' 
TCOON,ioos:station:TCOON:003:1,2008-05-09T00:00:00Z,26.8015,-97.4706,0.0,9.6,148.0,11.1,'11111222,11111222,11111222' 
TCOON,ioos:station:TCOON:003:1,2008-05-09T01:00:00Z,26.8015,-97.4706,0.0,9.3,153.0,10.8,'11111222,11111222,11111222' 
TCOON,ioos:station:TCOON:003:1,2008-05-09T02:00:00Z,26.8015,-97.4706,0.0,9.0,159.0,10.2,'11111222,11111222,11111222' 
TCOON,ioos:station:TCOON:003:1,2008-05-09T03:00:00Z,26.8015,-97.4706,0.0,8.4,164.0,10.2,'11111222,11111222,11111222' 
TCOON,ioos:station:TCOON:003:1,2008-05-09T04:00:00Z,26.8015,-97.4706,0.0,7.9,162.0,9.0,'11111222,11111222,11111222' 
TCOON,ioos:station:TCOON:003:1,2008-05-09T05:00:00Z,26.8015,-97.4706,0.0,7.2,161.0,8.5,'11111222,11111222,11111222' 
TCOON,ioos:station:TCOON:003:1,2008-05-09T06:00:00Z,26.8015,-97.4706,0.0,7.8,159.0,8.9,'11111222,11111222,11111222' 
TCOON,ioos:station:TCOON:003:1,2008-05-09T07:00:00Z,26.8015,-97.4706,0.0,7.8,160.0,8.9,'11111222,11111222,11111222' 
TCOON,ioos:station:TCOON:003:1,2008-05-09T08:00:00Z,26.8015,-97.4706,0.0,8.1,166.0,8.8,'11111222,11111222,11111222' 
TCOON,ioos:station:TCOON:003:1,2008-05-09T09:00:00Z,26.8015,-97.4706,0.0,7.2,159.0,8.1,'11111222,11111222,11111222' 
TCOON,ioos:station:TCOON:003:1,2008-05-09T10:00:00Z,26.8015,-97.4706,0.0,8.0,154.0,9.7,'11111222,11111222,11111222' 
TCOON,ioos:station:TCOON:003:1,2008-05-09T11:00:00Z,26.8015,-97.4706,0.0,8.6,158.0,9.8,'11111222,11111222,11111222' 
TCOON,ioos:station:TCOON:003:1,2008-05-09T12:00:00Z,26.8015,-97.4706,0.0,9.5,163.0,10.8,'11111222,11111222,11111222' 